Wind_Speed
19 19 19 19 20 19 19 20 20 20 20 19 18 18 17 17 17 17 17 17 18 18 17 18 18 18 17 17 17 16 17 17 17 17 16 16 16 16 16 16 16 16 16
20 20 20 20 20 20 20 21 21 21 21 21 20 19 19 18 18 18 18 18 18 17 17 18 18 18 17 17 17 17 17 18 18 17 17 17 17 17 17 16 16 16 16
20 21 21 21 21 21 21 22 22 21 21 21 21 20 20 19 19 19 18 18 18 18 18 18 18 18 18 18 18 18 18 18 18 19 18 18 18 18 18 17 17 17 17
20 21 21 21 22 23 23 22 22 22 22 22 21 21 21 20 20 19 19 19 19 20 20 19 19 19 19 19 19 19 19 18 18 18 18 18 18 18 18 18 18 18 17
20 21 21 22 23 23 23 23 22 22 22 22 22 21 21 21 20 21 20 20 21 21 21 21 21 21 20 20 19 19 19 18 18 18 18 18 18 18 18 18 18 17 17
22 21 22 22 22 23 22 23 23 23 22 22 22 22 23 22 22 21 21 22 22 22 22 22 22 21 21 20 20 20 19 18 18 17 17 18 18 18 18 18 18 18 17
22 22 22 22 22 22 22 22 22 23 23 23 23 23 24 24 23 23 22 22 23 23 22 22 22 21 22 21 21 20 20 20 19 19 19 18 18 18 19 18 18 18 18
22 22 22 22 22 22 23 23 23 23 23 24 24 24 25 25 25 24 23 22 22 22 22 22 22 22 22 22 22 22 21 21 21 21 20 20 20 19 20 20 20 19 19
21 22 22 22 23 23 23 23 24 24 24 25 25 26 26 26 26 25 24 23 22 23 23 23 23 23 23 23 23 23 23 23 23 23 23 23 22 22 21 21 21 21 21
22 22 22 23 23 23 23 24 24 25 25 26 26 27 27 27 26 26 25 24 24 24 24 25 25 24 24 24 24 25 25 25 25 25 25 24 24 24 23 23 23 22 22
22 23 23 23 24 24 24 24 25 25 25 26 27 27 27 27 27 27 26 25 25 25 25 25 26 26 25 26 26 26 26 27 26 26 26 25 25 25 25 25 25 24 23
22 23 23 24 24 25 26 26 26 26 26 26 26 27 27 27 28 28 27 27 26 26 26 27 27 27 27 27 27 27 28 28 28 28 27 26 26 27 27 27 26 26 25
24 24 25 25 25 26 26 26 26 27 26 26 26 27 27 28 29 29 28 28 28 28 28 29 29 29 28 28 28 29 29 29 28 28 28 28 28 28 28 28 27 27 25
26 26 26 26 26 26 27 27 26 26 27 27 27 28 29 29 30 30 29 29 29 29 29 29 29 29 29 29 29 30 30 29 30 29 29 29 29 29 28 27 27 27 27
27 27 27 27 27 27 28 28 28 28 28 28 28 29 29 29 30 31 30 29 30 30 30 30 30 30 30 30 30 30 30 30 30 31 30 30 30 30 29 28 28 28 28
28 28 28 28 28 28 28 29 29 29 29 29 29 30 30 30 30 31 31 31 30 31 31 31 31 31 31 31 31 31 30 30 31 31 31 31 31 30 30 29 29 29 29
30 30 30 30 30 30 30 30 30 31 31 30 30 30 31 31 31 31 32 31 31 32 32 32 32 32 31 31 32 32 32 31 31 31 32 32 31 31 30 30 30 30 30
32 32 31 31 31 31 31 31 31 31 32 32 32 32 32 32 32 32 32 32 32 32 31 32 32 32 32 32 32 33 33 33 32 32 33 33 33 32 32 32 32 32 31
33 32 32 32 32 32 32 33 33 33 33 33 33 33 33 33 32 33 33 33 31 31 31 32 32 32 33 33 33 33 33 33 33 33 33 34 34 34 33 33 33 33 33
32 32 32 32 32 33 33 33 33 33 33 33 33 33 33 33 33 33 33 33 32 31 31 32 33 33 33 33 33 34 34 34 34 34 33 33 34 35 35 34 34 34 34
32 31 31 32 32 33 33 33 34 34 33 33 33 33 33 33 33 33 33 33 33 33 33 33 33 34 34 33 34 34 34 34 35 34 34 33 34 35 35 35 35 35 35
31 31 32 32 32 33 33 33 33 34 34 33 33 33 33 33 33 33 34 34 35 35 35 35 35 35 34 34 35 35 35 35 35 35 34 34 34 34 35 35 35 35 35
30 30 31 31 32 32 33 33 34 34 34 34 34 34 33 33 33 33 34 34 35 35 35 35 35 35 35 34 33 34 34 35 34 34 35 35 35 35 34 35 35 35 36
30 30 30 31 31 32 33 33 34 34 34 34 34 33 33 33 33 33 33 33 34 35 35 34 34 33 34 34 34 34 34 35 35 35 35 35 36 36 35 35 35 35 36
30 31 31 31 32 32 32 32 32 32 33 33 33 32 32 32 32 32 33 33 34 34 34 34 33 33 34 35 35 35 35 35 35 35 36 36 36 36 36 36 36 36 36
31 31 31 32 32 32 31 32 32 32 32 32 32 32 32 32 32 33 33 33 33 33 33 33 33 34 34 34 34 34 35 35 35 36 36 36 36 36 36 36 36 36 36
Wind_Direction
276 277 278 277 278 277 277 277 278 277 277 278 276 276 276 276 278 280 284 284 285 285 285 286 285 285 285 285 283 282 280 279 277 276 278 280 281 280 279 279 278 282 285
275 276 279 279 277 276 276 277 278 278 277 277 275 273 273 274 276 278 281 284 283 283 283 285 285 284 284 284 282 281 279 278 277 276 277 278 279 280 280 280 279 280 281
277 277 277 278 277 276 277 277 278 277 276 275 274 272 271 272 274 275 278 281 281 281 281 282 282 283 283 281 281 280 280 278 276 275 276 276 277 279 279 280 278 278 277
279 279 279 277 277 276 276 277 276 276 275 273 273 272 270 270 271 272 276 278 278 280 279 279 279 279 279 279 279 280 279 278 276 275 274 275 276 278 278 278 277 276 274
279 279 278 277 277 275 274 275 274 274 274 272 270 270 269 269 270 271 273 274 277 278 278 277 278 277 275 275 276 278 277 276 276 276 274 274 276 278 279 278 275 273 274
280 279 278 278 278 277 276 276 273 272 273 271 269 269 268 268 269 271 273 275 277 277 277 276 276 276 275 273 272 273 274 274 273 274 274 274 275 277 278 278 275 272 272
279 278 278 278 277 276 275 273 272 272 272 272 269 268 267 267 268 271 274 276 275 275 275 274 274 274 273 273 271 272 272 272 271 272 273 274 274 275 276 275 273 272 271
280 279 279 279 278 276 275 273 273 273 273 272 270 268 267 267 268 268 272 274 273 273 273 273 272 272 272 271 270 270 270 271 271 272 273 275 275 276 276 273 271 269 270
281 281 279 279 279 278 277 275 274 274 275 273 271 270 267 267 267 267 268 272 271 270 271 271 271 271 271 270 269 269 269 271 272 273 274 274 274 276 275 274 273 271 268
282 281 280 279 280 280 281 278 276 277 276 275 273 271 268 266 266 267 268 271 270 269 270 271 271 270 270 269 270 270 271 271 272 273 274 274 274 275 274 274 273 272 269
284 282 281 281 281 281 281 280 279 279 278 277 275 271 269 267 266 267 268 269 268 268 270 271 272 270 269 269 269 270 271 271 272 273 272 273 274 274 274 273 274 273 271
283 283 282 283 282 281 281 281 280 280 280 279 276 273 269 267 266 266 266 268 267 266 267 269 271 270 269 268 268 269 269 270 271 271 271 272 274 274 274 272 272 272 270
283 283 283 282 282 282 282 282 281 280 280 279 277 274 271 268 266 265 267 268 267 267 268 269 270 269 268 268 268 269 270 270 271 271 271 272 273 274 274 273 271 270 268
282 283 283 282 283 283 282 282 281 280 279 278 277 275 273 269 267 266 268 268 267 267 268 269 270 269 268 268 268 268 268 269 270 270 270 271 271 272 273 272 270 269 268
280 281 282 283 283 284 283 283 282 280 279 279 278 276 274 273 270 268 267 268 268 267 268 268 269 269 268 268 268 269 269 269 268 268 269 270 271 271 271 270 269 268 268
280 280 281 281 282 283 283 283 283 282 281 280 279 277 275 275 272 270 269 268 268 268 267 268 270 269 268 267 268 268 269 270 269 268 269 270 271 271 269 269 269 269 268
279 279 280 280 281 282 282 282 282 282 281 280 280 278 276 275 273 271 271 270 269 268 267 267 268 269 269 269 268 268 268 269 269 269 269 269 269 269 268 268 268 268 268
278 278 278 279 280 282 282 282 282 282 280 279 279 279 278 277 275 273 272 271 271 269 267 266 267 268 269 269 270 269 269 269 269 269 268 268 268 268 268 268 268 267 266
277 277 278 278 279 281 282 282 282 281 280 279 278 278 278 277 275 273 272 271 271 270 268 267 267 268 268 269 269 270 270 269 269 270 269 267 267 268 268 267 268 266 266
276 276 278 279 279 280 281 282 282 282 281 281 279 278 277 277 276 275 272 272 270 270 270 268 268 268 268 269 270 270 269 269 269 270 271 270 269 268 267 266 267 266 266
275 275 277 279 280 281 281 282 282 282 282 281 280 280 278 277 277 276 274 272 271 271 271 271 270 270 269 270 270 271 270 269 268 269 270 271 271 269 268 267 266 266 266
275 276 277 278 280 281 282 283 283 282 282 282 281 280 279 279 277 276 273 271 271 271 272 272 272 271 270 269 270 271 271 269 268 269 270 270 271 270 268 267 267 267 267
277 278 279 279 280 280 282 283 282 281 281 281 281 280 279 278 277 276 275 273 272 271 272 272 273 273 271 270 270 270 269 269 269 269 269 269 269 269 268 268 268 267 267
280 281 281 281 281 281 282 283 282 281 281 280 280 280 279 279 278 277 276 275 274 273 274 274 273 272 271 270 270 270 269 268 268 269 269 269 269 268 268 268 267 267 267
282 282 283 283 283 283 283 284 284 284 283 282 281 280 279 279 278 277 276 274 273 273 274 274 274 273 272 272 272 271 271 270 269 269 269 269 269 269 268 267 267 267 268
283 284 284 284 284 284 284 286 286 286 285 283 282 280 280 279 279 278 277 276 274 273 274 275 274 273 273 273 273 272 271 270 269 269 269 269 269 269 268 268 268 268 268
Height
5799 5798 5798 5797 5797 5796 5796 5796 5796 5795 5795 5795 5795 5794 5794 5794 5794 5793 5792 5792 5790 5789 5789 5788 5787 5786 5785 5785 5784 5783 5783 5782 5782 5782 5781 5781 5781 5780 5780 5779 5778 5778 5777
5793 5793 5792 5792 5791 5791 5791 5790 5790 5789 5789 5789 5788 5788 5788 5788 5788 5787 5787 5786 5785 5784 5783 5782 5782 5781 5780 5779 5778 5778 5777 5777 5776 5776 5776 5776 5775 5775 5774 5774 5773 5772 5771
5787 5787 5786 5785 5785 5785 5784 5784 5784 5783 5783 5782 5782 5782 5782 5782 5781 5781 5780 5780 5779 5778 5777 5777 5776 5775 5774 5774 5773 5772 5771 5771 5770 5770 5770 5770 5769 5769 5768 5768 5767 5767 5766
5781 5781 5780 5779 5779 5778 5778 5777 5777 5776 5776 5775 5775 5775 5775 5775 5775 5774 5774 5774 5773 5773 5772 5771 5770 5769 5768 5768 5767 5766 5765 5765 5764 5764 5764 5764 5763 5763 5762 5762 5762 5761 5760
5775 5774 5773 5773 5772 5771 5770 5770 5769 5769 5769 5768 5768 5768 5768 5768 5768 5768 5768 5767 5767 5766 5765 5765 5764 5763 5762 5761 5761 5760 5760 5759 5759 5759 5758 5758 5757 5757 5757 5756 5756 5755 5755
5768 5767 5766 5765 5765 5764 5763 5763 5762 5762 5761 5761 5761 5761 5761 5761 5761 5760 5760 5760 5760 5759 5759 5758 5757 5757 5756 5755 5755 5755 5754 5754 5754 5753 5753 5752 5752 5751 5751 5750 5750 5750 5749
5761 5760 5759 5759 5758 5757 5756 5756 5755 5755 5754 5754 5754 5754 5754 5753 5753 5753 5753 5753 5752 5752 5752 5751 5751 5750 5749 5749 5749 5749 5748 5748 5748 5748 5747 5747 5746 5746 5745 5745 5744 5744 5743
5755 5754 5753 5752 5751 5750 5749 5749 5748 5748 5747 5747 5746 5746 5746 5746 5746 5746 5745 5745 5745 5744 5744 5744 5744 5743 5743 5742 5742 5742 5742 5742 5742 5742 5741 5741 5740 5740 5739 5738 5738 5738 5737
5749 5747 5746 5746 5745 5744 5743 5742 5741 5741 5740 5739 5739 5738 5738 5738 5738 5738 5738 5738 5737 5737 5737 5736 5736 5736 5736 5735 5735 5735 5735 5735 5735 5734 5734 5734 5733 5733 5732 5732 5731 5731 5731
5742 5741 5740 5739 5738 5737 5735 5734 5734 5733 5732 5731 5730 5730 5729 5729 5729 5730 5730 5730 5729 5730 5729 5729 5729 5728 5728 5728 5728 5728 5728 5727 5727 5727 5727 5726 5726 5725 5725 5725 5724 5724 5724
5736 5735 5733 5732 5731 5730 5728 5727 5726 5725 5724 5723 5723 5722 5721 5721 5721 5721 5721 5721 5721 5722 5721 5721 5721 5720 5720 5720 5720 5720 5720 5719 5719 5719 5719 5718 5718 5718 5717 5717 5717 5717 5717
5729 5728 5726 5725 5723 5722 5721 5719 5718 5717 5716 5715 5714 5713 5712 5712 5712 5713 5713 5713 5713 5713 5713 5713 5712 5712 5712 5711 5711 5711 5711 5711 5711 5711 5710 5710 5710 5710 5709 5709 5709 5708 5708
5722 5720 5719 5717 5716 5714 5713 5711 5710 5708 5707 5706 5705 5704 5704 5703 5703 5703 5704 5703 5703 5704 5703 5703 5703 5703 5703 5703 5703 5702 5702 5702 5702 5702 5702 5702 5702 5701 5700 5700 5700 5700 5700
5714 5712 5711 5709 5708 5706 5704 5703 5702 5700 5699 5698 5696 5696 5695 5694 5694 5694 5694 5694 5694 5694 5694 5694 5693 5693 5693 5693 5693 5693 5693 5693 5693 5693 5693 5693 5692 5692 5692 5692 5692 5692 5692
5705 5704 5703 5701 5699 5698 5696 5694 5693 5691 5690 5689 5687 5686 5685 5685 5684 5684 5684 5684 5684 5684 5684 5684 5683 5683 5683 5683 5683 5683 5683 5683 5683 5683 5683 5683 5683 5683 5683 5683 5683 5683 5684
5696 5695 5694 5692 5691 5689 5687 5685 5683 5682 5680 5679 5677 5676 5676 5675 5674 5673 5673 5673 5673 5673 5673 5673 5672 5672 5672 5672 5673 5673 5673 5673 5673 5673 5674 5674 5674 5674 5674 5674 5674 5674 5675
5688 5686 5685 5683 5681 5680 5678 5676 5675 5673 5671 5669 5668 5667 5666 5665 5664 5663 5663 5662 5662 5662 5662 5662 5662 5662 5662 5662 5662 5662 5663 5663 5663 5663 5664 5664 5664 5664 5664 5664 5665 5665 5666
5678 5676 5675 5673 5672 5670 5668 5666 5664 5663 5662 5660 5659 5657 5656 5654 5654 5653 5652 5652 5651 5651 5651 5651 5651 5651 5651 5651 5651 5652 5652 5652 5652 5652 5653 5653 5653 5654 5654 5655 5655 5655 5656
5668 5667 5665 5663 5662 5660 5658 5656 5654 5653 5651 5650 5648 5647 5645 5644 5643 5642 5642 5641 5641 5641 5640 5640 5640 5640 5640 5640 5641 5641 5641 5641 5642 5642 5642 5642 5642 5643 5643 5644 5644 5645 5645
5657 5656 5655 5653 5651 5650 5648 5646 5644 5642 5641 5639 5638 5636 5635 5634 5633 5632 5631 5631 5631 5630 5630 5630 5630 5629 5630 5630 5630 5630 5630 5630 5631 5631 5631 5631 5631 5632 5632 5633 5633 5634 5634
5647 5646 5644 5643 5641 5639 5637 5636 5634 5632 5630 5628 5627 5625 5624 5623 5622 5621 5621 5620 5620 5619 5619 5619 5619 5619 5619 5619 5619 5619 5619 5619 5620 5620 5620 5620 5620 5621 5621 5621 5622 5623 5623
5636 5635 5634 5632 5631 5629 5627 5625 5623 5621 5620 5618 5616 5614 5613 5612 5611 5610 5610 5609 5609 5609 5608 5608 5608 5608 5608 5608 5608 5608 5608 5609 5609 5609 5609 5609 5609 5609 5610 5610 5611 5611 5612
5626 5625 5624 5622 5620 5618 5616 5614 5612 5610 5609 5607 5606 5604 5603 5602 5601 5600 5599 5598 5598 5598 5597 5597 5597 5597 5597 5597 5597 5597 5597 5597 5597 5598 5598 5598 5598 5598 5599 5599 5599 5600 5600
5616 5615 5613 5611 5609 5608 5606 5603 5601 5599 5598 5596 5595 5594 5592 5591 5590 5589 5588 5588 5587 5587 5586 5586 5586 5586 5586 5586 5586 5586 5586 5586 5586 5586 5586 5587 5587 5587 5588 5588 5588 5588 5588
5606 5605 5603 5601 5599 5597 5595 5593 5590 5589 5587 5585 5584 5583 5582 5581 5580 5579 5578 5577 5577 5576 5576 5575 5575 5575 5575 5575 5575 5575 5575 5575 5575 5575 5575 5575 5576 5576 5576 5576 5576 5576 5576
5596 5594 5592 5590 5588 5586 5584 5582 5580 5578 5576 5575 5573 5572 5571 5570 5569 5568 5567 5566 5566 5565 5565 5565 5564 5564 5564 5563 5563 5563 5563 5563 5563 5563 5563 5564 5564 5564 5564 5564 5564 5564 5564